User: anonymous   Login
Location: Sperry Observatory
(40.6664°N, 74.3236°W)
Time: 19:01:59
(UTC-05:00)
Language:

JAS-2 - Orbit

View from above orbital plane
View from above orbital plane
View from above satellite
View from above satellite

Ground track
Ground track

The orbit data is extracted from the following two-line orbital elements,

1 24278U 96046B   14331.86913483 -.00000009  00000-0  28563-4 0  5277
2 24278 098.5176 323.1527 0349702 232.8230 191.0353 13.53037480902804
Epoch (UTC): 27 November 2014 20:51:33
Eccentricity: 0.0349702
inclination: 98.5176°
perigee height: 801 km
apogee height: 1321 km
right ascension of ascending node: 323.1527°
argument of perigee: 232.8230°
revolutions per day: 13.53037480
mean anomaly at epoch: 191.0353°
orbit number at epoch: 90280

The dashed part of the orbit path shows where the satellite is in the earth's shadow,  

DLR